Location: Unspecified
(43.3830°N, 0.0000°E)
Time: 04:32:28
(UTC+00:00)

Vanguard 2 - Pass Details

Date: 24 June 2019
Orbit: 553 x 2938 km, 32.9° (Epoch: 17 August)

Event Time Altitude Azimuth Distance (km) Brightness Sun altitude
Rises 08:27:17 0° 238° (WSW) 3,043 10.3 41.8°
Reaches altitude 10° 08:29:31 10° 227° (SW) 2,304 9.8 42.2°
Maximum altitude 08:34:15 31° 165° (SSE) 1,651 9.9 43.1°
Drops below altitude 10° 08:41:15 10° 107° (ESE) 3,481 11.9 44.4°
Sets 08:45:28 0° 99° (E) 4,900 12.4 45.1°
